Погода в Туркестане

Хотите узнать прогноз погоды в Туркестане? Тогда Вам сюда: Погода в Туркестане

Поиск расширенной информации на нашем сайте:

Полезная информация:

Новости сайта



02.01.2020
Опубликован Долгосрочный прогноз погоды по городам России и ближнего зарубежья на январь 2020 года.
Карты: Прогноз на январь и февраль 2020 года, Сравнение прогнозируемой аномалии приземной температуры воздуха на январь 2020 года по разным моделям.




Погода в Туркестане - сегодня

Время (UTC), дата Ветер
(°,м/с) 
Видим.   Явления Облачность Т
(°С)
Тd
(°С)
f(%) Тe
(°С)
Pmin
(гПа)
dP
(гПа)
Po
(мм)
O2
(г/м3)
Тmin Tmax R s Состояние
почвы
12 03.03.21 160 (Ю) 10 км    10/3 600 м кучево-дожд., средняя 
[Cb cap|Ac As]
+7.3 -1.8 52 +8  1023.5  -1.1  749  294           
15 03.03.21 тихо ()   н/о    8/0 средняя 
[Ac As]
+4.8 -0.5 69 +5  1023.2  -0.5  748  296    +8.6       
18 03.03.21 100 (В) н/о    ясно 
+3 +0.6 84 +2  1022.3  -1  748  298    +8.6       
21 03.03.21 080 (В) н/о    10/3 600 м кучево-дожд., средняя 
[Cb cap|Ac As]
+2.9 +1.1 88 +4  1020.9  -1.4  747  297           
00 04.03.21 090 (В) н/о    6/0 средняя 
[Ac As]
+1.4 +0.3 92 +2  1019.9  -1.1  746  299           
03 04.03.21 100 (В) 10 км    8/0 средняя, верхняя 
[Ac As|Ci sp]
+2.7 +1.7 93 +2  1019  -0.8  745  297           
06 04.03.21 160 (Ю) 10 км    10/4 600 м кучево-дожд., средняя 
[Cb cap|Ac As]
+6.1 +3.8 85 +5  1018.5  -0.1  745  293  +1         
09 04.03.21 020 (С) 10 км  {ливн. осадки}  10/8 600 м кучево-дожд., средняя 
[Cb cap|Ac As]
+7.7 +7.1 96 +8  1017  -1.3  744  290           
12 04.03.21 300 (СЗ) 10 км  слаб. ливневой дождь  10/10 600 м кучево-дожд. 
[Cb cap]
+7.7 +6.8 94 +8  1017.4  0.4  744  291           
15 04.03.21 310 (СЗ) н/о  слаб. ливневой дождь  10/10 600 м кучево-дожд. 
[Cb cap]
+4 +3.8 99 +2  1021.1  3.2  747  296    +8       
18 04.03.21 270 (З) н/о  {ливн. осадки}  10/10 600 м кучево-дожд. 
[Cb cap]
+2.9 +2.6 98 +2  1025.4  4.1  750  299    +8     
21 04.03.21 260 (З) н/о    3/0 средняя 
[Ac As]
+0.9 +0.6 98 +2  1029.7  753  302           
00 05.03.21 тихо ()   н/о    ясно 
-0.9 -1.3 97 -1  1032.1  2.1  754  305           
03 05.03.21 тихо ()   10 км    ясно 
-1.2 -1.6 97 -1  1033.3  1.2  755  306           
06 05.03.21 тихо ()   10 км    ясно 
+4.7 -2.3 60 +5  1032.6  -0.2  755  299  -2    0.0     
09 05.03.21 080 (В) 20000 м    ясно 
+7.2 -7.8 33 +8  1029.4  -2.8  753  296           
12 05.03.21 050 (СВ) 20000 м    ясно 
+7.3 -7.1 35 +8  1026.9  -2.5  751  296           
15 05.03.21 тихо ()   н/о    ясно 
+3.5 -3.6 60 +4  1025.5  -1.7  750  299    +7.7       
18 05.03.21 тихо ()   н/о    ясно 
+2 -4.1 64 +2  1023.8  -1.8  749  300    +7.7       
21 05.03.21 360 (С) н/о    ясно 
+0.5 -5.3 65 1021.1  -2.8  746  301           
00 06.03.21 020 (С) н/о    3/0 верхняя 
[Ci fib]
+1 -7.4 53 -1  1018.4  -2.5  745  300           
03 06.03.21 360 (С) 50000 м    8/0 средняя, верхняя 
[Ac lent|Ci fib]
+0.7 -7 56 +1  1016.4  -2  743  299           
06 06.03.21 300 (СЗ) 20000 м    9/0 верхняя 
[Cs]
+8.4 -5.4 37 +8  1014.9  -0.8  743  291  -1.6         
09 06.03.21 270 (З) 20000 м    10/0 верхняя 
[Cs]
+11.3 -8.1 25 +11  1013  -1.6  741  288           
12 06.03.21 270 (З) 20000 м    10/0 средняя 
[Ac As]
+10.5 -3.3 38 +10  1014.6  1.5  742  288           
Время (UTC), дата Ветер
(°,м/с) 
Видим.   Явления Облачность Т
(°С)
Тd
(°С)
f(%) Тe
(°С)
Pmin
(гПа)
dP
(гПа)
Po
(мм)
O2
(г/м3)
Тmin Tmax R s Состояние
почвы

Для получения пояснительной информации подведите курсор к названию столбца.

ПОГОДА в Туркестане - архив

Всё, что Вы хотите узнать о погоде в Туркестане - удобно и подробно!

Выберите нужную дату (начиная с 1 января 2019* года) и нажмите кнопку "Найти".
Будут отображены архивные сводки погоды по пункту Туркестан, начиная с указанной даты.


Отображать данные в формате CSV (для использования в таблицах Excel)


Внимание! Наш архив погоды предназначен исключительно для личного некоммерческого использования в познавательных целях. Если Вам необходимы официальные справки о состоянии погоды (для производственных, юридических, коммерческих и т.п. целей), обращайтесь в органы Росгидромета.

*Примечание: данная дата относится к архиву по метеостанциям СССР (Россия, СНГ, Балтия).
Архив по метеостанциям Зарубежной Европы и Азии (кроме Китая) хранится 10 дней, по другим регионам земного шара (Китай, Африка, Америка, Австралия, Океания) - 1 день.

Туркестан - район местоположения метеостанции


Название, широта, долгота, высота метеостанции:
Туркестан 43.3°ш. 68.2°д. 207 м над ур. моря [Казахстан]

Дополнительная информация

В oтличие oт бoльшинства пoгoдных сайтoв мы публикуем пoдрoбную метеoинфoрмацию в детальнoм прoфессиoнальнoм фoрмате.

Характеристики температуры и влажнoсти вoздуха измеряются на высoте 2 м в тени вдали oт зданий и деревьев.
Скoрoсть ветра измеряется на высoте 10 м (на урoвне рoста челoвека скoрoсть ветра ниже в 1.5-2 раза). Если метеoстанция нахoдится в гoрoде или в лесу, тo скoрoсть ветра занижена на 2-4 м/с пo сравнению с oткрытым местoм. Скoрoсть ветра над акватoриями крупных рек и oзёр, а также на вершинах хoлмoв на 2-5 м/с выше, чем в oбычных услoвиях.
Атмoсфернoе давление в разных тoчках местнoсти мoжет значительнo oтличаться oт давления на метеoстанции, в зависимoсти oт услoвий рельефа (при пoдъёме на 10 м давление пoнижается примернo на 1 мм рт.ст.).